Retour au catalogue

DELTA 1 DEB

ActifLEO
NORAD 10720·DEBRIS·🇺🇸 United States

Lancé Jul 29, 1976 depuis Vandenberg Space Force Base

Loading…

Prochains Passages (prochaines 24 heures)

TLE

FraisSource: Space-Track

Époque: Sep 14, 2026, 13:01 UTC

1 10720U 76077AR  26257.54266389  .00000281  00000-0  30631-2 0  9998
2 10720 102.1322 358.0566 0358546  29.6618  37.7248 12.05690710206683

Suivez DELTA 1 DEB en temps réel avec AllMySat

Download on the App Store